Weather History for KMAO - December, 2012

Change the Weather History Date:

Thursday, December 13, 2012

  Actual Average (KFLO) Record (KFLO)
Temperature  
Mean Temperature 44 °F 48 °F  
Max Temperature 51 °F 58 °F 80 °F (1991)
Min Temperature 37 °F 37 °F 8 °F (1962)
Degree Days  
Heating Degree Days 21 18  
Month to date heating degree days 210  
Since 1 July heating degree days 632  
Cooling Degree Days 0 0  
Month to date cooling degree days 0  
Year to date cooling degree days 2059  
Moisture  
Dew Point 41 °F    
Average Humidity 90    
Maximum Humidity 100    
Minimum Humidity 71    
Precipitation  
Precipitation 0.03 in 0.09 in 0.78 in (1973)
Month to date precipitation 1.19  
Year to date precipitation 41.09  
Sea Level Pressure  
Sea Level Pressure 30.29 in    
Wind  
Wind Speed 10 mph (North)    
Max Wind Speed 15 mph    
Max Gust Speed 22 mph    
Visibility 9 miles    
Events Rain    
T = Trace of Precipitation, MM = Missing Value Source: NWS Daily Summary

Daily Weather History Graph

Daily Weather History Graph

Search for Another Location

Airport or City:

Trip Planner

Search our weather history database for the weather conditions in past years. The results will help you decide how hot, cold, wet, or windy it might be!

Date:

Astronomy

Dec. 13, 2012 Rise Set
Actual Time 7:14 AM EST 5:08 PM EST
Civil Twilight 6:47 AM EST 5:36 PM EST
Nautical Twilight 6:15 AM EST 6:07 PM EST
Astronomical Twilight 5:45 AM EST 6:38 PM EST
Moon 7:22 AM EST (12/13) 5:48 PM EST (12/13)
Length of Visible Light 10h 49m
Length of Day
9h 53m
New Moon, 0% of the Moon is Illuminated
Dec 13
New Moon
Dec 20
First Quarter
Dec 28
Full
Jan 4
Last Quarter
Jan 11
New

Hourly Weather History & Observations

Time (EST) Temp. Windchill Dew Point Humidity Pressure Visibility Wind Dir Wind Speed Gust Speed Precip Events Conditions
12:15 AM 41.0 °F 33.5 °F 41.0 °F 100% 30.20 in 7.0 mi NE 13.8 mph 21.9 mph 0.01 in Rain Light Rain
12:35 AM 41.0 °F 35.2 °F 41.0 °F 100% 30.25 in 10.0 mi NNW 9.2 mph - 0.01 in Rain Rain
12:55 AM 41.0 °F 37.1 °F 41.0 °F 100% 30.24 in 10.0 mi North 5.8 mph - 0.01 in Rain Rain
1:15 AM 41.0 °F 34.3 °F 41.0 °F 100% 30.23 in 10.0 mi North 11.5 mph 16.1 mph N/A   Light Drizzle
1:35 AM 41.0 °F 35.2 °F 41.0 °F 100% 30.24 in 10.0 mi North 9.2 mph - N/A   Overcast
1:55 AM 41.0 °F 35.8 °F 41.0 °F 100% 30.24 in 10.0 mi NNW 8.1 mph - N/A   Overcast
2:15 AM 41.0 °F 35.2 °F 41.0 °F 100% 30.25 in 10.0 mi NNW 9.2 mph 17.3 mph N/A   Overcast
2:35 AM 41.0 °F 34.7 °F 41.0 °F 100% 30.25 in 10.0 mi NNW 10.4 mph 17.3 mph N/A   Overcast
2:55 AM 41.0 °F 34.3 °F 41.0 °F 100% 30.25 in 10.0 mi North 11.5 mph 19.6 mph N/A   Overcast
3:15 AM 41.0 °F 35.2 °F 41.0 °F 100% 30.26 in 5.0 mi NNW 9.2 mph - N/A   Drizzle
3:55 AM 41.0 °F 33.1 °F 41.0 °F 100% 30.22 in 5.0 mi North 15.0 mph 20.7 mph 0.02 in Rain Rain
4:15 AM 41.0 °F 33.9 °F 41.0 °F 100% 30.22 in 7.0 mi NNE 12.7 mph 20.7 mph N/A Rain Light Rain
4:35 AM 41.0 °F 33.5 °F 41.0 °F 100% 30.22 in 10.0 mi North 13.8 mph 18.4 mph N/A   Light Drizzle
4:55 AM 41.0 °F 33.9 °F 39.2 °F 93% 30.22 in 10.0 mi NNE 12.7 mph 21.9 mph N/A   Overcast
5:15 AM 39.2 °F 32.5 °F 39.2 °F 100% 30.22 in 10.0 mi NNE 10.4 mph 19.6 mph N/A   Overcast
5:35 AM 41.0 °F 33.9 °F 39.2 °F 93% 30.23 in 10.0 mi NNE 12.7 mph 17.3 mph N/A   Light Drizzle
6:15 AM 41.0 °F 34.7 °F 39.2 °F 93% 30.26 in 10.0 mi North 10.4 mph - N/A   Overcast
6:55 AM 41.0 °F 34.7 °F 39.2 °F 93% 30.27 in 10.0 mi North 10.4 mph 18.4 mph N/A   Overcast
7:15 AM 41.0 °F 34.3 °F 39.2 °F 93% 30.29 in 10.0 mi NNW 11.5 mph 18.4 mph N/A Rain Rain
7:35 AM 41.0 °F 35.2 °F 39.2 °F 93% 30.30 in 10.0 mi North 9.2 mph - N/A   Overcast
7:55 AM 41.0 °F 35.8 °F 39.2 °F 93% 30.30 in 10.0 mi North 8.1 mph 16.1 mph N/A   Overcast
8:15 AM 41.0 °F 34.7 °F 39.2 °F 93% 30.31 in 10.0 mi North 10.4 mph - N/A   Overcast
8:35 AM 41.0 °F 35.8 °F 39.2 °F 93% 30.32 in 4.0 mi NNW 8.1 mph - N/A   Overcast
8:55 AM 41.0 °F 34.7 °F 41.0 °F 100% 30.33 in 2.0 mi North 10.4 mph - N/A   Overcast
9:15 AM 41.0 °F 36.4 °F 41.0 °F 100% 30.34 in 2.5 mi North 6.9 mph - N/A   Overcast
9:55 AM 41.0 °F 35.2 °F 41.0 °F 100% 30.35 in 7.0 mi North 9.2 mph - N/A   Overcast
10:35 AM 42.8 °F 36.6 °F 39.2 °F 87% 30.35 in 10.0 mi North 11.5 mph 18.4 mph N/A   Overcast
10:55 AM 42.8 °F 37.0 °F 41.0 °F 93% 30.35 in 10.0 mi North 10.4 mph 18.4 mph N/A   Overcast
11:15 AM 44.6 °F 37.8 °F 41.0 °F 87% 30.35 in 10.0 mi North 15.0 mph 21.9 mph N/A   Overcast
11:35 AM 44.6 °F 38.8 °F 41.0 °F 87% 30.34 in 10.0 mi North 11.5 mph 18.4 mph N/A   Overcast
11:55 AM 44.6 °F 39.2 °F 41.0 °F 87% 30.34 in 10.0 mi North 10.4 mph 18.4 mph N/A   Overcast
12:15 PM 44.6 °F 38.4 °F 41.0 °F 87% 30.33 in 10.0 mi NNE 12.7 mph 20.7 mph N/A   Overcast
12:55 PM 46.4 °F 41.5 °F 41.0 °F 81% 30.31 in 10.0 mi NNE 10.4 mph - N/A   Overcast
1:15 PM 46.4 °F 41.9 °F 41.0 °F 81% 30.30 in 10.0 mi NNE 9.2 mph - N/A   Overcast
1:35 PM 50.0 °F - 42.8 °F 76% 30.29 in 10.0 mi NNE 11.5 mph - N/A   Overcast
1:55 PM 50.0 °F - 42.8 °F 76% 30.30 in 10.0 mi North 6.9 mph - N/A   Overcast
2:15 PM 50.0 °F - 41.0 °F 71% 30.30 in 10.0 mi North 9.2 mph 18.4 mph N/A   Overcast
2:35 PM 50.0 °F - 41.0 °F 71% 30.29 in 10.0 mi North 9.2 mph 16.1 mph N/A   Overcast
2:55 PM 50.0 °F - 42.8 °F 76% 30.29 in 10.0 mi North 11.5 mph - N/A   Overcast
3:15 PM 50.0 °F - 41.0 °F 71% 30.29 in 10.0 mi North 8.1 mph - N/A   Overcast
3:35 PM 51.8 °F - 42.8 °F 71% 30.28 in 10.0 mi NNE 10.4 mph - N/A   Overcast
3:55 PM 51.8 °F - 42.8 °F 71% 30.28 in 10.0 mi North 6.9 mph - N/A   Scattered Clouds
4:15 PM 51.8 °F - 42.8 °F 71% 30.28 in 10.0 mi NNE 10.4 mph - N/A   Clear
4:35 PM 51.8 °F - 42.8 °F 71% 30.28 in 10.0 mi NNE 10.4 mph - N/A   Clear
4:55 PM 50.0 °F - 42.8 °F 76% 30.29 in 10.0 mi North 5.8 mph - N/A   Clear
5:15 PM 48.2 °F - 42.8 °F 82% 30.29 in 10.0 mi North 3.5 mph - N/A   Clear
5:35 PM 46.4 °F 44.3 °F 42.8 °F 87% 30.29 in 10.0 mi North 4.6 mph - N/A   Clear
6:15 PM 46.4 °F 43.5 °F 42.8 °F 87% 30.30 in 10.0 mi North 5.8 mph - N/A   Clear
6:35 PM 46.4 °F 43.5 °F 41.0 °F 81% 30.31 in 10.0 mi North 5.8 mph - N/A   Clear
7:55 PM 44.6 °F - 41.0 °F 87% 30.33 in 10.0 mi Calm Calm - N/A   Clear
8:15 PM 42.8 °F 41.1 °F 41.0 °F 93% 30.34 in 10.0 mi NNW 3.5 mph - N/A   Clear
8:35 PM 41.0 °F 39.0 °F 41.0 °F 100% 30.34 in 10.0 mi North 3.5 mph - N/A   Clear
8:55 PM 41.0 °F - 41.0 °F 100% 30.34 in 10.0 mi Calm Calm - N/A   Clear
9:15 PM 41.0 °F - 41.0 °F 100% 30.34 in 10.0 mi Calm Calm - N/A   Clear
9:55 PM 39.2 °F - 39.2 °F 100% 30.34 in 10.0 mi Calm Calm - N/A   Clear
10:15 PM 37.4 °F - 37.4 °F 100% 30.34 in 2.5 mi Calm Calm - N/A   Clear
10:35 PM 39.2 °F - 39.2 °F 100% 30.34 in 10.0 mi Calm Calm - N/A   Clear
11:15 PM 39.2 °F 35.0 °F 39.2 °F 100% 30.34 in 10.0 mi North 5.8 mph - N/A   Clear
11:35 PM 39.2 °F 35.9 °F 37.4 °F 93% 30.33 in 10.0 mi North 4.6 mph - N/A   Clear